Temperature
21 19 19 19 19 20 21 21 20 21 22 22 22 20 19 20 21 20 20 20 20 21 21 21 21 21 21 21 21 21 21 20 20 19 18 18 18 18 17 17 17 17 18 18
18 20 20 20 20 20 21 21 21 21 22 22 21 20 19 19 19 19 19 19 20 20 21 21 21 21 21 21 21 21 20 20 19 19 19 18 18 17 17 17 17 18 18 18
21 21 22 22 22 22 21 21 21 21 21 21 21 20 18 18 18 18 18 18 19 19 20 20 20 20 21 20 20 20 20 20 19 19 18 18 18 18 17 17 18 18 18 18
21 22 22 22 22 22 21 22 22 22 20 19 20 19 19 15 16 17 16 16 16 17 18 18 19 19 19 20 20 20 20 19 19 18 18 18 18 18 18 17 17 17 17 17
20 22 22 22 22 23 22 21 21 21 20 19 18 18 17 16 16 16 16 16 16 16 16 17 17 18 18 19 19 20 19 19 18 17 17 17 17 17 17 17 16 17 17 17
20 21 22 22 22 21 21 19 17 15 16 17 18 17 16 15 16 16 16 16 16 16 16 17 17 17 17 18 18 19 18 18 18 17 16 16 16 16 16 16 16 16 16 16
20 21 21 22 22 20 18 17 16 16 15 16 17 16 15 16 16 15 15 16 16 17 17 17 17 17 17 16 17 17 17 17 17 17 16 16 15 15 15 15 15 16 16 16
19 18 20 21 21 20 19 17 16 16 15 15 16 15 15 16 15 15 15 15 16 16 17 17 17 16 16 16 16 16 16 16 16 16 15 15 14 15 15 15 15 16 16 16
18 19 21 20 20 19 18 16 15 14 14 14 14 14 15 15 14 14 14 15 15 16 17 17 16 16 15 15 15 15 15 15 15 15 15 14 14 14 14 14 15 15 15 15
18 19 20 20 19 16 16 14 12 13 15 14 14 14 14 15 14 14 13 15 16 17 17 16 16 15 15 14 14 14 14 14 14 14 14 14 13 14 14 14 14 14 14 14
18 18 19 18 19 18 16 14 12 11 12 13 13 13 13 14 14 13 14 16 17 17 17 16 16 15 14 14 14 14 14 14 14 14 14 13 13 13 13 14 14 14 14 14
16 15 16 17 17 16 16 14 12 14 13 11 11 12 14 13 12 13 14 16 16 16 16 15 15 14 14 14 14 14 14 13 13 13 13 13 13 13 13 13 14 14 13 13
15 15 15 16 15 16 15 13 12 11 10 9 10 13 14 13 13 14 14 15 16 16 15 14 14 14 14 14 13 13 13 13 13 13 13 13 13 13 13 13 13 13 13 13
15 14 15 16 16 16 16 14 12 11 11 10 10 13 14 13 12 13 15 15 15 15 14 13 13 13 13 13 12 12 12 12 13 13 13 13 13 13 13 13 13 12 12 13
15 15 15 14 15 16 16 16 13 12 12 12 12 12 14 13 12 14 15 15 14 14 13 12 12 12 12 12 11 11 12 12 12 12 12 13 12 12 13 12 12 12 12 12
14 15 15 15 16 15 15 16 15 14 13 12 12 12 13 13 13 13 14 14 13 13 12 12 12 12 12 11 11 11 12 12 12 12 12 12 12 12 12 12 12 12 12 12
12 13 14 13 15 16 15 16 16 15 13 13 13 14 13 13 12 13 14 14 14 13 13 12 12 12 12 12 11 11 11 11 12 12 12 12 12 12 12 12 12 11 11 11
11 11 11 12 14 14 14 16 16 15 14 13 13 13 13 13 15 15 16 15 15 14 13 12 12 12 12 11 11 11 11 11 11 11 12 12 12 11 11 11 11 11 11 11
11 11 11 10 12 13 14 16 16 15 15 14 13 13 14 14 13 15 17 16 15 14 13 13 12 12 11 11 11 11 11 11 11 11 11 11 11 11 11 11 11 11 11 11
11 11 11 10 12 12 14 16 17 16 15 16 14 14 14 12 12 14 17 16 16 15 13 13 12 12 11 11 11 11 11 11 11 11 11 11 11 11 11 10 10 10 10 10
12 12 11 11 11 12 14 16 16 15 15 17 17 17 16 13 16 17 17 16 16 15 14 13 12 12 11 11 10 10 10 10 11 11 11 11 10 10 10 10 10 10 10 10
13 12 11 10 11 12 15 16 15 14 17 17 18 18 18 18 19 18 17 16 15 15 14 13 12 11 11 11 10 10 10 10 10 10 10 10 10 10 10 10 10 10 10 10
11 11 11 11 12 14 16 17 18 18 17 18 18 18 18 18 18 18 17 16 15 15 14 13 12 11 11 11 10 10 10 10 10 10 10 9 9 9 9 9 9 9 9 9
11 11 10 11 11 14 16 17 18 18 18 18 18 18 18 17 18 18 17 16 16 15 14 13 12 11 11 11 11 10 10 10 10 9 9 9 9 9 9 9 9 9 9 9
11 12 10 10 12 13 15 16 17 17 17 17 18 18 18 18 18 18 17 17 16 15 14 13 12 12 11 11 11 10 10 10 9 9 9 8 8 8 9 9 9 9 9 9
10 11 11 12 14 13 14 15 15 15 16 16 16 17 17 18 18 18 17 17 16 15 14 13 12 12 12 11 11 10 10 10 9 9 9 8 8 8 9 9 9 9 9 8
Wind_Speed
4 4 3 7 7 5 2 3 7 7 6 4 5 7 10 3 4 3 3 3 5 6 5 5 5 4 4 6 7 8 10 9 9 7 7 6 6 5 4 4 6 6 5 3
6 3 8 6 5 4 3 3 5 6 6 4 4 6 8 8 4 5 5 5 5 5 5 4 4 3 3 4 5 6 8 8 8 7 6 4 4 3 2 3 3 4 4 4
2 5 5 1 2 2 1 2 3 5 6 7 5 6 7 7 7 10 10 6 5 4 4 4 4 2 1 2 3 4 5 6 7 7 4 3 3 2 2 2 1 1 3 3
4 5 5 3 2 2 2 1 2 2 3 5 4 4 5 6 7 8 10 9 7 6 5 3 3 3 2 0 2 3 3 3 3 5 6 7 5 4 3 2 1 0 1 1
5 4 4 3 2 1 3 2 2 1 2 1 4 1 6 5 6 7 7 8 7 6 5 4 4 3 3 2 2 5 6 4 3 2 3 4 3 2 3 2 2 1 1 1
5 4 3 2 2 2 1 5 6 5 4 1 3 1 6 4 4 5 7 7 6 6 5 4 3 2 2 3 1 2 6 6 7 6 4 5 6 6 5 4 3 2 1 0
7 7 4 0 1 5 7 6 5 6 4 6 3 3 8 6 5 5 7 8 7 6 5 5 4 3 3 3 2 2 4 5 6 7 7 6 6 6 6 5 4 2 1 0
2 7 5 2 2 2 3 7 5 3 5 6 5 6 7 4 4 5 7 8 8 8 6 6 6 5 5 5 5 4 5 5 5 6 5 6 6 5 4 4 3 2 1 0
6 6 3 4 3 6 5 4 5 6 2 3 7 7 8 4 7 9 9 9 10 9 8 8 7 7 7 7 7 6 6 5 5 6 7 7 6 6 5 4 3 2 1 1
9 5 3 0 4 7 2 7 6 5 3 5 7 6 5 7 10 11 11 12 12 10 9 8 7 7 7 7 6 6 5 6 5 6 7 6 6 5 5 4 3 3 2 2
5 5 4 4 1 1 3 4 5 4 4 5 5 8 8 10 11 10 11 11 11 11 10 8 7 7 6 6 5 4 3 3 4 5 6 7 6 5 5 4 4 3 3 4
3 5 3 6 4 2 5 7 8 4 5 5 4 9 8 9 9 9 11 10 10 9 8 7 7 6 5 3 2 2 1 2 2 3 4 6 6 5 5 5 4 4 5 6
6 6 3 8 6 1 3 4 4 5 5 6 5 9 6 5 7 7 9 11 10 9 7 5 4 3 2 0 1 1 1 1 0 3 5 6 6 5 5 5 5 6 7 7
6 5 7 8 9 6 5 5 6 6 5 6 10 12 14 14 12 11 10 9 9 8 6 4 2 0 2 2 2 1 2 1 0 2 5 6 6 5 5 5 6 6 6 7
5 4 8 9 8 5 7 9 8 10 10 11 11 11 16 13 10 9 8 8 8 7 5 4 3 3 3 2 1 2 2 1 1 2 3 3 4 4 5 5 6 7 7 6
3 4 4 6 8 7 8 12 10 10 8 10 10 12 15 10 7 8 9 8 8 7 5 4 5 5 5 5 4 3 2 1 1 2 1 2 3 4 5 5 6 7 7 6
3 5 4 6 5 3 8 11 9 7 9 10 12 14 9 6 9 9 9 9 9 8 7 6 6 7 7 7 6 5 3 1 2 3 3 4 4 5 5 6 7 7 6 5
8 7 5 3 2 7 10 5 7 8 10 11 10 9 8 10 8 8 8 9 10 9 8 7 6 6 5 5 4 3 2 2 3 3 4 4 5 6 6 7 7 6 4 4
6 7 5 4 5 9 9 8 8 8 10 9 11 12 8 3 3 7 9 10 11 10 8 7 7 6 5 5 4 3 3 3 3 4 4 5 6 6 6 6 5 4 5 5
5 4 5 4 4 8 11 8 4 5 7 9 9 12 7 6 3 9 7 7 10 9 7 7 6 5 5 5 4 5 5 4 5 4 4 5 5 6 6 5 4 4 5 7
4 2 3 6 8 9 9 5 5 5 9 5 6 10 9 10 12 7 2 4 6 8 8 8 7 6 6 5 6 6 6 6 5 4 5 5 5 5 5 5 4 6 8 8
3 4 4 4 4 9 6 2 6 9 5 6 7 9 11 14 13 9 6 6 7 8 8 8 8 7 6 6 7 7 6 5 5 6 6 5 5 4 5 6 5 7 8 9
6 8 6 8 10 9 6 8 9 7 9 10 10 11 11 13 13 11 9 9 9 10 9 9 9 8 6 6 7 8 6 5 6 6 6 5 5 4 4 6 7 7 7 7
6 4 4 7 11 12 13 11 11 12 13 13 12 12 10 13 15 12 9 9 10 10 10 9 9 8 8 8 8 7 6 7 7 7 6 5 5 4 4 4 6 7 8 7
8 4 5 9 13 11 12 12 14 16 14 12 13 11 12 13 14 13 10 11 12 12 10 10 11 11 11 9 9 8 8 9 8 8 7 5 5 5 4 4 3 5 5 7
3 4 5 9 13 12 14 15 14 15 16 16 15 15 12 13 16 13 12 12 12 13 11 11 12 12 11 10 10 9 10 11 10 8 8 6 5 5 5 6 5 7 4 9
Wind_Direction
41 55 280 245 209 213 257 298 300 286 303 335 340 343 341 325 224 249 264 274 281 277 309 342 326 288 239 218 212 207 202 202 191 186 187 187 192 192 197 193 185 177 165 147
31 306 259 239 208 211 237 305 311 306 335 11 360 8 2 29 31 35 27 9 353 338 340 344 335 314 263 234 220 215 210 204 199 197 188 178 167 165 166 151 142 134 109 80
269 271 310 77 88 128 164 171 291 299 328 4 13 358 8 1 24 39 33 18 354 335 325 337 338 330 290 233 217 205 206 207 206 195 172 145 126 116 134 148 138 73 72 65
304 299 360 38 52 80 318 256 290 312 3 326 8 305 335 341 358 25 20 15 4 353 343 343 351 349 353 71 130 139 147 182 208 195 183 176 179 184 188 172 175 74 38 27
292 305 343 325 276 333 275 358 46 65 157 326 355 247 290 339 346 348 360 2 354 351 351 350 356 353 348 360 115 134 137 150 146 190 193 173 159 159 142 144 166 192 267 298
261 279 256 253 49 14 23 56 40 42 80 243 263 240 273 252 263 305 327 337 339 336 339 340 345 1 349 342 342 150 158 165 160 161 175 178 170 161 159 171 183 202 227 293
332 324 319 306 55 22 61 65 11 350 1 253 280 235 246 224 214 247 279 292 299 302 306 309 317 323 314 304 285 243 193 180 175 167 167 174 166 163 170 172 179 176 155 41
302 301 306 336 192 177 107 131 157 242 250 284 308 250 257 240 233 243 254 263 271 269 267 269 271 277 282 278 271 250 222 205 187 175 162 149 148 153 158 164 165 158 143 355
196 255 306 24 38 130 135 153 160 144 213 277 280 294 300 262 269 261 259 259 258 259 263 266 268 267 268 272 270 260 236 218 198 176 155 149 159 161 155 157 148 124 78 32
170 222 275 171 74 38 72 139 103 130 197 269 288 280 253 263 257 259 256 256 260 264 266 269 268 263 261 261 266 266 248 221 196 176 163 161 171 165 153 142 113 81 60 52
164 185 293 4 82 285 101 96 106 121 160 180 266 272 229 232 243 252 260 261 264 269 273 277 279 274 264 259 254 247 238 222 193 178 167 161 161 154 141 122 95 72 54 48
117 129 252 283 284 236 193 180 155 171 228 193 216 270 262 246 263 264 270 275 274 272 275 279 283 284 274 262 261 264 234 222 206 169 155 153 149 141 127 107 87 69 65 60
137 112 16 337 341 329 118 144 154 134 130 171 195 263 286 284 290 276 269 276 282 283 288 290 290 292 291 105 74 5 303 253 171 143 146 150 150 140 127 112 95 85 78 68
118 130 176 220 240 233 223 193 168 150 179 217 224 251 282 286 283 284 277 276 283 283 281 268 255 188 87 79 63 342 314 333 70 151 159 164 163 152 137 119 105 97 88 78
117 192 228 241 248 229 239 237 199 200 207 215 238 242 261 266 266 268 271 279 284 283 268 228 183 162 133 118 120 278 285 326 69 124 164 175 164 145 130 117 109 102 91 84
111 210 227 269 260 241 256 258 239 226 227 230 249 263 258 261 256 258 262 265 268 263 243 214 186 174 176 181 200 221 242 294 81 100 110 134 137 132 123 116 115 108 98 89
177 173 184 261 281 322 270 248 234 224 220 204 228 245 262 258 250 246 248 244 244 242 229 214 205 198 196 196 196 203 211 178 93 92 95 106 115 110 104 111 114 114 108 100
170 154 174 231 169 229 241 235 202 223 247 223 233 251 240 235 251 243 228 226 235 229 222 215 206 199 197 194 197 205 201 175 134 115 115 118 117 111 109 112 116 116 114 109
163 150 154 166 226 263 282 258 205 207 261 240 228 249 248 230 311 286 237 216 222 216 210 206 198 190 188 197 200 197 205 192 166 152 143 138 132 126 122 122 125 126 123 107
74 111 143 170 218 252 248 255 180 145 266 260 217 240 233 142 282 277 264 215 220 206 193 189 180 173 187 206 188 189 201 193 189 177 160 147 142 139 136 133 125 118 119 111
4 12 204 218 232 262 263 277 137 182 243 277 227 234 216 200 226 232 214 202 208 194 187 176 170 181 201 197 180 192 197 202 192 156 140 136 138 142 139 129 121 125 120 112
241 261 250 220 233 263 273 151 191 229 268 288 270 247 231 231 244 243 233 227 204 191 182 172 173 193 205 191 182 192 203 194 155 141 137 133 134 141 138 129 124 128 127 120
221 208 213 210 230 251 256 230 242 247 265 270 267 260 243 241 247 242 232 221 207 196 188 179 178 187 198 192 186 194 199 164 149 144 144 138 126 117 131 139 139 136 135 133
272 239 226 266 270 270 272 267 267 265 257 258 257 258 247 239 245 238 225 211 203 198 192 182 175 184 200 199 197 199 177 161 153 155 153 145 136 126 125 139 151 153 155 148
247 265 248 261 276 287 281 273 269 275 273 265 261 256 244 239 243 231 218 207 203 199 192 184 187 193 202 197 197 190 174 164 162 161 157 151 149 143 132 120 135 162 166 168
256 235 268 283 287 286 282 276 276 277 276 273 269 268 258 234 237 227 216 207 199 197 190 190 196 200 202 196 197 188 179 173 166 165 164 160 154 147 140 129 99 65 120 150
Height
1508 1513 1517 1514 1513 1512 1513 1515 1518 1510 1499 1499 1501 1500 1495 1489 1492 1493 1495 1497 1498 1499 1502 1505 1507 1509 1510 1511 1513 1514 1515 1516 1517 1517 1517 1519 1520 1522 1524 1524 1525 1526 1527 1528
1514 1515 1507 1504 1506 1509 1512 1516 1515 1508 1500 1500 1502 1503 1498 1496 1497 1499 1500 1501 1502 1502 1503 1504 1505 1506 1508 1509 1510 1512 1513 1514 1515 1515 1515 1516 1517 1518 1519 1520 1521 1522 1523 1524
1514 1510 1503 1503 1505 1509 1511 1514 1514 1512 1505 1503 1503 1508 1506 1502 1501 1500 1501 1501 1501 1501 1500 1500 1501 1502 1504 1505 1507 1508 1510 1511 1512 1513 1513 1513 1513 1514 1514 1516 1516 1518 1518 1519
1511 1506 1505 1506 1507 1507 1514 1507 1507 1508 1514 1520 1514 1525 1512 1511 1505 1503 1503 1502 1501 1500 1499 1498 1498 1498 1499 1500 1501 1503 1504 1506 1507 1508 1508 1507 1507 1508 1509 1511 1512 1513 1513 1514
1513 1507 1507 1509 1507 1506 1508 1506 1508 1509 1514 1521 1520 1525 1522 1512 1510 1506 1504 1503 1501 1500 1498 1497 1496 1496 1496 1496 1497 1497 1498 1499 1500 1501 1501 1501 1502 1503 1505 1507 1508 1508 1509 1509
1510 1506 1505 1505 1504 1505 1505 1510 1515 1521 1525 1533 1522 1527 1526 1516 1510 1507 1505 1503 1502 1500 1498 1497 1496 1495 1494 1494 1494 1494 1494 1494 1493 1493 1493 1495 1497 1499 1501 1503 1504 1505 1505 1505
1515 1508 1504 1503 1506 1507 1511 1524 1539 1538 1543 1538 1523 1526 1523 1508 1507 1507 1506 1504 1502 1500 1499 1497 1496 1494 1493 1492 1491 1491 1490 1490 1489 1489 1490 1492 1493 1496 1498 1500 1500 1501 1501 1501
1524 1525 1508 1504 1506 1511 1514 1523 1542 1548 1549 1539 1526 1526 1516 1505 1504 1504 1503 1502 1500 1499 1498 1496 1495 1493 1492 1491 1490 1489 1487 1487 1486 1487 1487 1488 1491 1494 1496 1497 1497 1497 1497 1497
1524 1523 1506 1505 1505 1508 1517 1523 1525 1539 1541 1544 1535 1525 1511 1502 1502 1501 1499 1498 1497 1496 1496 1494 1493 1491 1490 1488 1487 1486 1485 1485 1484 1485 1485 1486 1489 1491 1492 1494 1494 1494 1494 1495
1513 1520 1509 1507 1507 1512 1515 1522 1534 1540 1545 1549 1539 1531 1521 1505 1501 1497 1495 1494 1493 1493 1493 1492 1490 1489 1487 1486 1484 1483 1483 1482 1482 1482 1483 1485 1487 1488 1490 1491 1492 1492 1492 1493
1509 1519 1515 1512 1512 1514 1520 1526 1532 1540 1541 1548 1547 1532 1506 1500 1495 1494 1491 1490 1490 1490 1489 1488 1487 1485 1484 1483 1482 1480 1480 1479 1479 1479 1481 1483 1484 1486 1488 1489 1490 1491 1491 1492
1511 1520 1526 1519 1512 1512 1513 1519 1529 1535 1536 1543 1545 1530 1495 1495 1492 1491 1490 1488 1487 1486 1485 1484 1482 1481 1481 1480 1479 1478 1477 1477 1477 1477 1479 1481 1483 1484 1487 1488 1489 1490 1490 1491
1511 1521 1531 1528 1525 1516 1515 1519 1522 1529 1536 1545 1545 1524 1492 1491 1489 1488 1487 1484 1483 1481 1480 1479 1478 1478 1477 1478 1477 1477 1476 1476 1477 1477 1478 1480 1482 1484 1485 1487 1488 1489 1490 1490
1505 1517 1526 1529 1523 1515 1513 1516 1520 1524 1533 1535 1529 1512 1495 1489 1487 1484 1482 1481 1479 1478 1476 1475 1475 1475 1475 1475 1476 1475 1476 1476 1477 1478 1479 1480 1481 1483 1485 1486 1487 1489 1490 1491
1505 1514 1515 1514 1510 1510 1510 1508 1512 1517 1515 1517 1509 1504 1492 1484 1482 1480 1478 1477 1476 1475 1473 1473 1472 1473 1473 1474 1475 1475 1476 1476 1477 1477 1478 1479 1481 1482 1484 1486 1487 1489 1490 1491
1505 1510 1512 1512 1506 1507 1507 1501 1501 1504 1504 1504 1501 1495 1479 1478 1477 1476 1475 1474 1473 1472 1471 1471 1471 1471 1472 1473 1474 1475 1476 1476 1476 1477 1477 1478 1480 1482 1484 1486 1488 1490 1491 1492
1509 1512 1517 1519 1508 1506 1509 1494 1492 1494 1492 1493 1494 1483 1474 1475 1473 1471 1470 1470 1469 1469 1469 1469 1470 1470 1471 1472 1473 1474 1475 1476 1476 1476 1477 1478 1479 1481 1483 1485 1487 1490 1491 1493
1506 1512 1518 1518 1512 1515 1499 1482 1483 1485 1482 1480 1478 1473 1471 1470 1468 1467 1466 1466 1466 1466 1466 1467 1468 1469 1470 1471 1473 1474 1474 1475 1476 1476 1477 1478 1479 1481 1483 1485 1487 1489 1491 1493
1499 1506 1515 1520 1516 1505 1490 1477 1475 1479 1478 1469 1470 1467 1466 1467 1466 1463 1461 1461 1461 1462 1463 1465 1466 1467 1469 1470 1471 1472 1473 1474 1475 1476 1477 1478 1479 1481 1482 1484 1486 1488 1490 1492
1501 1503 1511 1516 1514 1509 1486 1469 1467 1472 1476 1462 1463 1462 1462 1465 1469 1462 1458 1457 1457 1458 1460 1462 1464 1465 1467 1468 1469 1469 1470 1471 1473 1475 1476 1478 1479 1480 1482 1483 1485 1487 1489 1491
1506 1508 1510 1512 1511 1495 1474 1468 1469 1480 1474 1459 1459 1458 1458 1459 1457 1455 1455 1455 1455 1455 1457 1458 1461 1462 1464 1465 1466 1466 1467 1469 1472 1473 1475 1477 1478 1480 1481 1483 1484 1486 1488 1490
1505 1508 1508 1509 1509 1497 1470 1469 1472 1468 1459 1458 1456 1454 1452 1450 1450 1450 1451 1451 1452 1452 1453 1455 1457 1459 1461 1462 1463 1464 1465 1467 1469 1471 1473 1475 1477 1479 1480 1482 1484 1485 1487 1490
1502 1498 1497 1497 1491 1474 1468 1466 1463 1460 1457 1454 1451 1449 1447 1445 1444 1444 1445 1446 1447 1449 1450 1452 1454 1456 1458 1459 1461 1462 1464 1466 1467 1469 1471 1473 1475 1477 1479 1481 1482 1484 1486 1488
1494 1489 1491 1487 1476 1468 1464 1460 1458 1456 1452 1448 1446 1444 1442 1439 1438 1438 1440 1441 1442 1444 1446 1448 1450 1452 1454 1456 1458 1460 1462 1464 1465 1467 1469 1471 1473 1475 1477 1479 1481 1483 1485 1487
1490 1487 1486 1482 1471 1465 1459 1455 1451 1448 1445 1443 1440 1438 1436 1434 1432 1432 1433 1435 1437 1439 1441 1444 1446 1448 1450 1453 1455 1457 1459 1461 1463 1464 1466 1468 1471 1473 1475 1477 1479 1481 1484 1486
1487 1486 1484 1476 1467 1463 1455 1448 1445 1442 1438 1435 1433 1431 1429 1427 1425 1424 1426 1428 1431 1433 1436 1439 1441 1443 1446 1449 1451 1453 1455 1457 1459 1460 1462 1465 1467 1470 1472 1474 1477 1479 1482 1484